WZZ433 EYVI-LHBP

Flight info

Callsign WZZ433
Flight time N/A
Altitude 36000
Route UPASI1B UPASI DCT TUNGA DCT SUWGI DCT BULEP DCT ASLUX DCT NEPOX DCT LIMVI DCT ORTEB/N0428F320 DCT KELEL DCT EDEMU EDEMU2T
Aircraft A321/M-V/N

Departure

Time 2026-05-03 21:20
Airport Vilnius International Airport (EYVI)

Arrival

Time N/A
Airport Budapest Liszt Ferenc International Airport (LHBP)
Time Latitude Longitude Altitude Speed Heading
2026-05-03 21:01 54.64274 25.28545 647 ft 0 kts 356°
2026-05-03 21:15 54.64277 25.28545 647 ft 2 kts 356°
2026-05-03 21:16 54.64297 25.28544 647 ft 3 kts
2026-05-03 21:16 54.64324 25.28556 648 ft 3 kts 44°
2026-05-03 21:16 54.64321 25.28597 649 ft 4 kts 98°
2026-05-03 21:16 54.64310 25.28646 652 ft 5 kts 139°
2026-05-03 21:17 54.64246 25.28675 649 ft 13 kts 171°
2026-05-03 21:17 54.64184 25.28692 648 ft 14 kts 160°
2026-05-03 21:17 54.64218 25.28829 653 ft 12 kts 24°
2026-05-03 21:17 54.64293 25.28880 653 ft 12 kts 22°
2026-05-03 21:18 54.64367 25.28934 655 ft 11 kts 23°
2026-05-03 21:18 54.64438 25.28986 657 ft 11 kts 23°
2026-05-03 21:18 54.64505 25.29061 657 ft 12 kts 70°
2026-05-03 21:18 54.64478 25.29220 655 ft 15 kts 114°
2026-05-03 21:19 54.64390 25.29254 656 ft 15 kts 201°
2026-05-03 21:19 54.64256 25.29163 654 ft 41 kts 201°
2026-05-03 21:19 54.63732 25.28801 638 ft 119 kts 202°
2026-05-03 21:19 54.62774 25.28142 755 ft 165 kts 202°
2026-05-03 21:20 54.61699 25.27371 1449 ft 169 kts 205°
2026-05-03 21:20 54.60605 25.26599 2255 ft 169 kts 205°
2026-05-03 21:20 54.59497 25.25837 2815 ft 179 kts 205°
2026-05-03 21:20 54.58271 25.24986 3107 ft 201 kts 205°
2026-05-03 21:21 54.56901 25.24035 3326 ft 225 kts 205°
2026-05-03 21:21 54.55391 25.22995 3866 ft 237 kts 205°
2026-05-03 21:21 54.53852 25.21940 4680 ft 240 kts 205°
2026-05-03 21:21 54.52290 25.20871 5478 ft 243 kts 205°
2026-05-03 21:22 54.50832 25.19458 6245 ft 241 kts 229°
2026-05-03 21:22 54.50091 25.16918 6831 ft 248 kts 263°
2026-05-03 21:22 54.50221 25.13883 7328 ft 261 kts 281°
2026-05-03 21:22 54.50677 25.10822 8048 ft 266 kts 285°
2026-05-03 21:23 54.51231 25.07712 8834 ft 270 kts 286°
2026-05-03 21:23 54.51783 25.04646 9621 ft 273 kts 286°
2026-05-03 21:23 54.52336 25.01480 10237 ft 283 kts 285°
2026-05-03 21:23 54.52861 24.98026 10438 ft 306 kts 278°
2026-05-03 21:24 54.52908 24.94271 10833 ft 320 kts 263°
2026-05-03 21:24 54.52353 24.90515 11363 ft 330 kts 250°
2026-05-03 21:24 54.51547 24.86789 12033 ft 334 kts 250°
2026-05-03 21:24 54.50732 24.83027 12763 ft 337 kts 251°
2026-05-03 21:25 54.49910 24.79235 13494 ft 339 kts 251°
2026-05-03 21:25 54.49081 24.75418 14178 ft 342 kts 251°
2026-05-03 21:25 54.48242 24.71568 14816 ft 345 kts 251°
2026-05-03 21:25 54.47395 24.67677 15461 ft 349 kts 251°
2026-05-03 21:26 54.46540 24.63754 16098 ft 352 kts 251°
2026-05-03 21:26 54.45672 24.59790 16735 ft 356 kts 251°
2026-05-03 21:26 54.44796 24.55793 17361 ft 359 kts 251°
2026-05-03 21:26 54.43909 24.51754 17986 ft 363 kts 251°
2026-05-03 21:27 54.43012 24.47678 18548 ft 367 kts 251°
2026-05-03 21:27 54.42106 24.43559 19081 ft 370 kts 251°
2026-05-03 21:27 54.41189 24.39402 19632 ft 374 kts 251°
2026-05-03 21:27 54.40262 24.35213 20173 ft 378 kts 250°
2026-05-03 21:28 54.39325 24.30974 20718 ft 381 kts 250°
2026-05-03 21:28 54.38379 24.26706 21252 ft 385 kts 250°
2026-05-03 21:28 54.37422 24.22397 21772 ft 389 kts 250°
2026-05-03 21:28 54.36451 24.18043 22294 ft 392 kts 250°
2026-05-03 21:29 54.35469 24.13662 22791 ft 396 kts 250°
2026-05-03 21:29 54.34475 24.09237 23273 ft 399 kts 250°
2026-05-03 21:29 54.33476 24.04780 23719 ft 403 kts 250°
2026-05-03 21:29 54.32466 24.00280 24126 ft 406 kts 250°
2026-05-03 21:30 54.31431 23.95688 24533 ft 409 kts 250°
2026-05-03 21:30 54.30399 23.91134 24931 ft 412 kts 250°
2026-05-03 21:30 54.29357 23.86552 25322 ft 415 kts 250°
2026-05-03 21:30 54.28307 23.81940 25716 ft 417 kts 250°
2026-05-03 21:31 54.27607 23.78864 25975 ft 419 kts 250°
2026-05-03 21:31 54.26547 23.74199 26365 ft 422 kts 250°
2026-05-03 21:31 54.25481 23.69504 26743 ft 425 kts 250°
2026-05-03 21:31 54.24404 23.64779 27121 ft 428 kts 250°
2026-05-03 21:32 54.23317 23.60035 27490 ft 431 kts 250°
2026-05-03 21:32 54.22217 23.55248 27857 ft 434 kts 250°
2026-05-03 21:32 54.21111 23.50444 28210 ft 436 kts 250°
2026-05-03 21:32 54.19992 23.45606 28569 ft 439 kts 249°
2026-05-03 21:33 54.18865 23.40749 28909 ft 442 kts 249°
2026-05-03 21:33 54.17729 23.35852 29239 ft 445 kts 249°
2026-05-03 21:33 54.16571 23.30865 29581 ft 448 kts 249°
2026-05-03 21:33 54.15418 23.25918 29931 ft 450 kts 249°
2026-05-03 21:34 54.14256 23.20941 30239 ft 453 kts 249°
2026-05-03 21:34 54.13088 23.15958 30648 ft 452 kts 249°
2026-05-03 21:34 54.11918 23.10987 31087 ft 451 kts 249°
2026-05-03 21:34 54.10749 23.06030 31503 ft 450 kts 249°
2026-05-03 21:35 54.09524 23.01122 31907 ft 450 kts 244°
2026-05-03 21:35 54.07846 22.96625 32313 ft 452 kts 232°
2026-05-03 21:35 54.05671 22.92761 32704 ft 453 kts 221°
2026-05-03 21:35 54.03083 22.89699 33094 ft 455 kts 210°
2026-05-03 21:36 54.00182 22.87560 33478 ft 456 kts 198°
2026-05-03 21:36 53.97100 22.86266 33857 ft 456 kts 193°
2026-05-03 21:36 53.94007 22.85065 34215 ft 455 kts 197°
2026-05-03 21:36 53.91028 22.83297 34541 ft 454 kts 201°
2026-05-03 21:37 53.88078 22.81407 34889 ft 453 kts 202°
2026-05-03 21:37 53.85138 22.79518 35239 ft 452 kts 202°
2026-05-03 21:37 53.82201 22.77626 35584 ft 451 kts 202°
2026-05-03 21:37 53.79272 22.75739 35900 ft 451 kts 202°
2026-05-03 21:38 53.73420 22.71993 35987 ft 449 kts 201°
2026-05-03 21:38 53.67576 22.68275 35992 ft 449 kts 201°
2026-05-03 21:39 53.61734 22.64561 35991 ft 449 kts 201°
2026-05-03 21:39 53.55849 22.60823 35993 ft 449 kts 201°
2026-05-03 21:40 53.50006 22.57107 35995 ft 449 kts 201°
2026-05-03 21:40 53.44153 22.53419 35997 ft 449 kts 201°
2026-05-03 21:41 53.38292 22.49747 36003 ft 450 kts 201°
2026-05-03 21:41 53.32429 22.46082 36001 ft 450 kts 201°
2026-05-03 21:42 53.26561 22.42410 36006 ft 450 kts 201°
2026-05-03 21:42 53.20690 22.38743 36008 ft 451 kts 201°
2026-05-03 21:43 53.14812 22.35084 36015 ft 451 kts 201°
2026-05-03 21:43 53.08930 22.31433 36018 ft 451 kts 201°
2026-05-03 21:44 53.03006 22.27768 36021 ft 452 kts 201°
2026-05-03 21:44 52.97112 22.24148 36028 ft 452 kts 201°
2026-05-03 21:45 52.91210 22.20526 36026 ft 452 kts 201°
2026-05-03 21:45 52.85305 22.16910 36028 ft 452 kts 201°
2026-05-03 21:46 52.79401 22.13307 36029 ft 452 kts 201°
2026-05-03 21:46 52.73496 22.09704 36029 ft 453 kts 201°
2026-05-03 21:47 52.67584 22.06100 36034 ft 453 kts 201°
2026-05-03 21:47 52.61666 22.02527 36040 ft 453 kts 200°
2026-05-03 21:48 52.55745 21.98970 36037 ft 453 kts 200°
2026-05-03 21:48 52.49822 21.95411 36044 ft 453 kts 200°
2026-05-03 21:49 52.43900 21.91850 36037 ft 453 kts 200°
2026-05-03 21:49 52.37975 21.88303 36043 ft 453 kts 200°
2026-05-03 21:50 52.32052 21.84765 36046 ft 453 kts 200°
2026-05-03 21:50 52.26124 21.81233 36052 ft 454 kts 200°
2026-05-03 21:51 52.20152 21.77687 36056 ft 454 kts 200°
2026-05-03 21:51 52.14220 21.74177 36049 ft 454 kts 200°
2026-05-03 21:52 52.08280 21.70682 36043 ft 454 kts 200°
2026-05-03 21:52 52.02344 21.67188 36054 ft 454 kts 200°
2026-05-03 21:53 51.96406 21.63702 36048 ft 454 kts 200°
2026-05-03 21:53 51.90461 21.60215 36061 ft 454 kts 200°
2026-05-03 21:54 51.84511 21.56748 36055 ft 455 kts 200°
2026-05-03 21:54 51.78549 21.53292 36057 ft 455 kts 200°
2026-05-03 21:55 51.72590 21.49841 36057 ft 455 kts 200°
2026-05-03 21:55 51.66626 21.46390 36063 ft 456 kts 200°
2026-05-03 21:56 51.60658 21.42940 36063 ft 456 kts 200°
2026-05-03 21:56 51.54693 21.39505 36065 ft 455 kts 200°
2026-05-03 21:57 51.48678 21.36060 36063 ft 456 kts 200°
2026-05-03 21:57 51.42708 21.32634 36066 ft 456 kts 200°
2026-05-03 21:58 51.36736 21.29220 36066 ft 456 kts 200°
2026-05-03 21:58 51.30757 21.25824 36066 ft 456 kts 200°
2026-05-03 21:59 51.24766 21.22429 36068 ft 457 kts 200°
2026-05-03 21:59 51.18777 21.19045 36070 ft 457 kts 200°
2026-05-03 22:00 51.12781 21.15667 36074 ft 457 kts 200°
2026-05-03 22:00 51.06781 21.12298 36078 ft 457 kts 200°
2026-05-03 22:01 51.00783 21.08923 36084 ft 457 kts 200°
2026-05-03 22:01 50.94780 21.05569 36078 ft 458 kts 200°
2026-05-03 22:02 50.88774 21.02228 36080 ft 458 kts 200°
2026-05-03 22:02 50.82761 20.98883 36088 ft 458 kts 200°
2026-05-03 22:03 50.76746 20.95530 36093 ft 458 kts 200°
2026-05-03 22:03 50.70729 20.92189 36090 ft 458 kts 200°
2026-05-03 22:04 50.64706 20.88874 36087 ft 459 kts 200°
2026-05-03 22:04 50.59655 20.86105 36090 ft 459 kts 200°
2026-05-03 22:05 50.53622 20.82798 36092 ft 459 kts 200°
2026-05-03 22:05 50.47582 20.79495 36087 ft 460 kts 200°
2026-05-03 22:06 50.41546 20.76192 36091 ft 460 kts 200°
2026-05-03 22:06 50.35494 20.72889 36093 ft 460 kts 200°
2026-05-03 22:07 50.29447 20.69606 36091 ft 460 kts 200°
2026-05-03 22:07 50.23391 20.66320 36091 ft 461 kts 200°
2026-05-03 22:08 50.17334 20.63052 36092 ft 461 kts 200°
2026-05-03 22:08 50.11268 20.59788 36097 ft 461 kts 200°
2026-05-03 22:09 50.05200 20.56517 36101 ft 462 kts 200°
2026-05-03 22:10 49.96048 20.51613 36101 ft 462 kts 199°
2026-05-03 22:10 49.89963 20.48367 36112 ft 462 kts 199°
2026-05-03 22:11 49.83876 20.45135 36109 ft 463 kts 199°
2026-05-03 22:11 49.77784 20.41894 36117 ft 463 kts 199°
2026-05-03 22:12 49.71691 20.38659 36125 ft 463 kts 199°
2026-05-03 22:12 49.65590 20.35443 36137 ft 464 kts 199°
2026-05-03 22:13 49.59484 20.32228 36140 ft 464 kts 199°
2026-05-03 22:13 49.53374 20.29011 36142 ft 464 kts 199°
2026-05-03 22:14 49.47179 20.26214 36145 ft 464 kts 194°
2026-05-03 22:14 49.40848 20.23912 36153 ft 465 kts 193°
2026-05-03 22:15 49.34539 20.21710 36165 ft 465 kts 193°
2026-05-03 22:15 49.28227 20.19493 36172 ft 466 kts 193°
2026-05-03 22:16 49.21913 20.17238 36175 ft 466 kts 193°
2026-05-03 22:16 49.15593 20.14984 36176 ft 466 kts 193°
2026-05-03 22:17 49.09273 20.12744 36177 ft 467 kts 193°
2026-05-03 22:17 49.02943 20.10503 36179 ft 467 kts 193°
2026-05-03 22:18 48.96606 20.08266 36178 ft 468 kts 193°
2026-05-03 22:18 48.90214 20.06014 35691 ft 473 kts 193°
2026-05-03 22:18 48.86967 20.04873 34590 ft 484 kts 193°
2026-05-03 22:19 48.83658 20.03710 33569 ft 490 kts 193°
2026-05-03 22:19 48.80324 20.02538 32584 ft 494 kts 193°
2026-05-03 22:19 48.76970 20.01365 31630 ft 495 kts 192°
2026-05-03 22:19 48.73609 20.00191 30735 ft 496 kts 192°
2026-05-03 22:20 48.70272 19.99028 30359 ft 486 kts 192°
2026-05-03 22:20 48.67016 19.97897 30136 ft 474 kts 192°
2026-05-03 22:20 48.63863 19.96804 30162 ft 456 kts 192°
2026-05-03 22:20 48.60817 19.95744 30010 ft 443 kts 192°
2026-05-03 22:21 48.57856 19.94713 29819 ft 431 kts 192°
2026-05-03 22:21 48.54950 19.93703 29452 ft 425 kts 192°
2026-05-03 22:21 48.52077 19.92707 28720 ft 427 kts 192°
2026-05-03 22:21 48.49118 19.91685 27252 ft 447 kts 192°
2026-05-03 22:22 48.46093 19.90644 26859 ft 440 kts 192°
2026-05-03 22:22 48.43156 19.89632 26731 ft 426 kts 192°
2026-05-03 22:22 48.40304 19.88647 26594 ft 414 kts 192°
2026-05-03 22:22 48.37527 19.87689 26380 ft 406 kts 192°
2026-05-03 22:23 48.34786 19.86742 26038 ft 402 kts 192°
2026-05-03 22:23 48.32065 19.85806 25650 ft 399 kts 192°
2026-05-03 22:23 48.29368 19.84882 25261 ft 397 kts 192°
2026-05-03 22:23 48.26682 19.83962 24868 ft 394 kts 192°
2026-05-03 22:24 48.24017 19.83050 24475 ft 392 kts 192°
2026-05-03 22:24 48.21367 19.82144 24084 ft 389 kts 192°
2026-05-03 22:24 48.18698 19.81227 23690 ft 387 kts 192°
2026-05-03 22:24 48.16076 19.80374 23222 ft 385 kts 189°
2026-05-03 22:25 48.13448 19.79674 22765 ft 382 kts 187°
2026-05-03 22:25 48.10834 19.79080 22297 ft 379 kts 187°
2026-05-03 22:25 48.08233 19.78527 21851 ft 377 kts 186°
2026-05-03 22:25 48.05641 19.77978 21405 ft 375 kts 186°
2026-05-03 22:26 48.03071 19.77424 20978 ft 372 kts 187°
2026-05-03 22:26 48.00514 19.76856 20552 ft 370 kts 187°
2026-05-03 22:26 47.97979 19.76277 20128 ft 368 kts 187°
2026-05-03 22:26 47.95455 19.75689 19700 ft 366 kts 187°
2026-05-03 22:27 47.92952 19.75100 19277 ft 364 kts 187°
2026-05-03 22:27 47.90455 19.74511 18861 ft 362 kts 187°
2026-05-03 22:27 47.87978 19.73928 18454 ft 359 kts 187°
2026-05-03 22:27 47.85521 19.73278 17968 ft 359 kts 193°
2026-05-03 22:28 47.83193 19.71979 17531 ft 358 kts 206°
2026-05-03 22:28 47.81120 19.69963 17104 ft 356 kts 220°
2026-05-03 22:28 47.79305 19.67483 16665 ft 354 kts 223°
2026-05-03 22:28 47.77510 19.65004 16241 ft 351 kts 223°
2026-05-03 22:29 47.75718 19.62544 15829 ft 349 kts 222°
2026-05-03 22:29 47.73935 19.60108 15425 ft 347 kts 222°
2026-05-03 22:29 47.72165 19.57696 15040 ft 344 kts 222°
2026-05-03 22:29 47.70737 19.55749 14723 ft 343 kts 222°
2026-05-03 22:30 47.68991 19.53363 14337 ft 340 kts 222°
2026-05-03 22:30 47.67254 19.50989 13966 ft 338 kts 222°
2026-05-03 22:30 47.65505 19.48604 13539 ft 336 kts 222°
2026-05-03 22:30 47.63813 19.46302 13135 ft 334 kts 222°
2026-05-03 22:31 47.62109 19.43986 12748 ft 331 kts 222°
2026-05-03 22:31 47.60396 19.41658 12358 ft 329 kts 222°
2026-05-03 22:31 47.58738 19.39407 11980 ft 326 kts 222°
2026-05-03 22:31 47.57070 19.37145 11815 ft 316 kts 222°
2026-05-03 22:32 47.55487 19.34969 11688 ft 305 kts 226°
2026-05-03 22:32 47.54403 19.32374 11554 ft 292 kts 256°
2026-05-03 22:32 47.54273 19.29458 11193 ft 284 kts 284°
2026-05-03 22:32 47.55104 19.26825 10354 ft 287 kts 313°
2026-05-03 22:33 47.56475 19.24603 9314 ft 300 kts 315°
2026-05-03 22:33 47.57937 19.22285 8136 ft 314 kts 314°
2026-05-03 22:33 47.59454 19.19864 6896 ft 328 kts 313°
2026-05-03 22:33 47.60974 19.17409 6497 ft 312 kts 313°
2026-05-03 22:34 47.62382 19.15114 6378 ft 290 kts 313°
2026-05-03 22:34 47.63687 19.12979 6240 ft 270 kts 313°
2026-05-03 22:34 47.64910 19.10980 6065 ft 255 kts 313°
2026-05-03 22:34 47.65941 19.08889 5697 ft 251 kts 292°
2026-05-03 22:35 47.66201 19.06365 5366 ft 249 kts 261°
2026-05-03 22:35 47.65582 19.04010 5019 ft 246 kts 231°
2026-05-03 22:35 47.64373 19.02231 4640 ft 246 kts 220°
2026-05-03 22:35 47.63104 19.00535 4306 ft 245 kts 220°
2026-05-03 22:36 47.61772 18.99032 4086 ft 237 kts 202°
2026-05-03 22:36 47.60714 18.98631 3904 ft 231 kts 180°
2026-05-03 22:36 47.59184 18.99142 3582 ft 226 kts 149°
2026-05-03 22:36 47.58014 19.00660 3252 ft 224 kts 131°
2026-05-03 22:37 47.56978 19.02372 3026 ft 222 kts 131°
2026-05-03 22:37 47.55940 19.04081 3006 ft 225 kts 131°
2026-05-03 22:37 47.54887 19.05801 3010 ft 226 kts 132°
2026-05-03 22:37 47.53831 19.07519 2960 ft 226 kts 132°
2026-05-03 22:38 47.52789 19.09216 2764 ft 218 kts 132°
2026-05-03 22:38 47.51785 19.10849 2470 ft 212 kts 132°
2026-05-03 22:38 47.50807 19.12439 2205 ft 205 kts 132°
2026-05-03 22:38 47.49895 19.13921 1947 ft 184 kts 132°
2026-05-03 22:39 47.49088 19.15231 1712 ft 162 kts 132°
2026-05-03 22:39 47.48367 19.16398 1468 ft 148 kts 133°
2026-05-03 22:39 47.47671 19.17539 1248 ft 150 kts 132°
2026-05-03 22:39 47.46965 19.18681 1063 ft 150 kts 131°
2026-05-03 22:40 47.46262 19.19838 840 ft 152 kts 131°
2026-05-03 22:40 47.45557 19.20986 682 ft 151 kts 131°
2026-05-03 22:40 47.44849 19.22126 506 ft 150 kts 132°
2026-05-03 22:40 47.44191 19.23181 455 ft 119 kts 131°
2026-05-03 22:41 47.43753 19.23897 455 ft 69 kts 132°